Regional Weather Roundup
Issued by NWS Kansas City/Pleasant Hill, MO

Home | Current Version | Previous Version | Text Only | Print | Product List | Glossary On
Versions: 1 2 3 4 5 6 7 8 9 10 11 12 13 14 15 16 17 18 19 20 21 22 23 24 25 26 27 28 29 30 31 32 33 34 35 36 37 38 39 40 41 42 43 44 45 46 47 48 49
000
ASUS43 KEAX 281110
RWREAX

WEATHER ROUNDUP FOR EASTERN KANSAS AND NORTHWEST MISSOURI
NATIONAL WEATHER SERVICE KANSAS CITY/PLEASANT HILL MO
600 AM CDT TUE JUL 28 2015

KSZ040-057-103>105-MOZ028-029-037-043-281200-
...KANSAS CITY METROPOLITAN AREA...

CITY           SKY/WX    TMP DP  RH WIND       PRES   REMARKS
K.C. INTL      PTCLDY    76  73  91 S8        29.88S
K.C. DOWNTOWN  CLEAR     80  74  81 S6        29.87S
LEES SUMMIT    CLEAR     79  74  84 S7        29.90R
OLATHE - IXD   CLEAR     77  74  90 S7        29.90R
OLATHE - OJC   CLEAR     77  74  90 S6        29.89R
LAWRENCE       CLEAR     76  73  91 SE5       29.87R

$$

MOZ001>008-011>017-020>025-030>033-038>040-044>046-053-054-281200-
...NORTHERN AND CENTRAL MISSOURI...

CITY           SKY/WX    TMP DP  RH WIND       PRES   REMARKS
ST. JOSEPH     CLEAR     76  73  91 S9        29.85F
MOSBY          SUNNY     73  72  94 SE3       29.88S
WARRENSBURG    CLEAR     75  73  94 S5        29.90R
WHITEMAN AFB   CLEAR     77  77 100 S6        29.90R
CLINTON        CLEAR     79  75  89 S3        29.91S
SEDALIA        CLEAR     76  73  91 S6        29.93R
WARSAW         NOT AVBL
CHILLICOTHE      N/A     75  72  90 S3        29.91S
KIRKSVILLE     CLEAR     72  69  90 SE6       29.93S

$$

MOZ041-047>049-056>058-063>065-088>090-097-281200-
...EASTERN AND SOUTHERN MISSOURI...

CITY           SKY/WX    TMP DP  RH WIND       PRES   REMARKS
ST. LOUIS INTL MOCLDY    76  71  85 E5        29.95R
SPIRIT OF STL  CLEAR     73  73 100 CALM      29.93R FOG
COLUMBIA       CLEAR     73  72  96 SE6       29.93S
JEFFERSON CITY CLEAR     74  72  93 SE3       29.92S
ROLLA          CLEAR     75  73  93 S8        29.95R
OSAGE BEACH    CLEAR     75  72  88 CALM      29.94S
SPRINGFIELD    CLEAR     77  73  87 S7        29.96R
BRANSON        CLEAR     75  70  83 CALM      29.98R
JOPLIN         CLEAR     78  71  79 S10       29.93R
WEST PLAINS    CLEAR     75  71  87 CALM      29.99R

$$

IAZ060-094-KSZ022-034>040-054-083-096-NEZ052-066-093-281200-
...KANSAS...SOUTHEAST NEBRASKA AND IOWA...

CITY           SKY/WX    TMP DP  RH WIND       PRES   REMARKS
TOPEKA         CLEAR     79  74  84 S5        29.85S
MANHATTAN      CLEAR     79  72  79 SW9       29.81F
EMPORIA        CLEAR     75  72  90 S12       29.87S
CHANUTE        CLEAR     78  75  90 S7        29.90R
WICHITA        CLEAR     78  70  76 S12       29.87S
OMAHA          MOCLDY    79  73  82 S15       29.77R
LINCOLN        LGT RAIN  80  71  74 S7        29.77S
FALLS CITY     CLEAR     75  73  93 SE9       29.81F
LAMONI         CLEAR     72  70  93 S9        29.87F
DES MOINES     PTCLDY    74  69  85 S10       29.84F

$$



USA.gov is the U.S. government's official web portal to all federal, state and local government web resources and services.